CZ-6A DEB

Satellite information

Favourite Embed

Satellite Type and Status

DEBRISIN ORBIT

Key statistics

Satellite CZ-6A DEB at a glance.

Uptime

1128

Days in orbit

Revolutions

≈ 13.9

Per day

Orbit

SSO

Sun Synchronous Orbit

Inclination

99.0

Latest

Satellite identification and parameters

Extended collection of information and parameters for CZ-6A DEB.

Object identification

Identified? True

Debris? True

Object name: CZ-6A DEB

International designator: 2022-151ER

Object number (NORAD): 54417

Object ID (CCSDS): 54417

Country: PEOPLES REPUBLIC OF CHINA (PRC)

Current information (Y/N): Y

RCS size: SMALL

Orbital parameters

Period: 103.695 minutes

Inclination: 98.9582 deg

SMA: 7311.361 km

Apoapsis: 1050.88 km

Periapsis: 815.571 km

RAAN: 310.7418 deg

Eccentricy: 0.016092

Argument of periapsis: 271.0206 deg

Mean anomaly: 87.2519 deg

Mean motion: 13.88690473 rev/day

Mean motion (dot): 0.00003297 rev/day2

B* drag term: 0.0024988 1/REarth

Two-line elements (TLE)

Creation date: Dec. 12, 2025, 7:16 a.m.

Reference frame: TEME

Reference center: EARTH

Epoch: Dec. 11, 2025, 8:47 p.m. UTC

TLE line 0: 0 CZ-6A DEB

TLE line 1: 1 54417U 22151ER 25345.86616274 .00003297 00000-0 24988-2 0 9995

TLE line 2: 2 54417 98.9582 310.7418 0160920 271.0206 87.2519 13.88690473155589

Live tracking on map

Real-time ground track for satellite CZ-6A DEB.

In-orbit conjunctions

A list of the most updated potential collisions computed for object CZ-6A DEB.

Target Orbit TCA Probability of collision Miss distance Type
METEOR 2-17 LEO 2025-11-11 23:32:44 0.0001246396 752.0 (m) PAYLOAD
COSMOS 2333 LEO 2024-10-29 12:46:44 0.0001501991 989.0 (m) PAYLOAD

Associated space launch

Chinese satellite reported for atmospheric/ocean/environmental/spatial parameter research purposes, details TBD.

CZ-6A DEB was lifted into orbit during the mission ‘Long March 6A | Yunhai 3’, on board a Long March 6A space rocket.

The launch took place on Nov. 11, 2022, 10:52 p.m. from Launch Complex 9A.

For more information about the launch, click the button.

Launch to space Long March 6A | Yunhai 3
Long March 6A | Yunhai 3

Agency: N/A

Status: Launch Successful

Launch date: Nov. 11, 2022, 10:52 p.m. UTC

Rocket: Long March 6A

Launch pad: Launch Complex 9A

Location: Taiyuan Satellite Launch Center, People's Republic of China

...

Latest news about this satellite

There are no fresh news available about this satellite. Check back as we update our databases every day.


Newsletter sign-up

Weekly statistics, charts and insights to help you stay on top of the space industry.